Hourly Data Report for November 24, 2018

VICTORIA UNIVERSITY CS
BRITISH COLUMBIA
Current Station Operator: ECCC - MSC

48°27'25.200" N
123°18'16.600" W
60.10 m
1018598
71783
WYJ

Download Data

Hourly Data (November 2018)
Hourly Data Report for November 24, 2018
TIME
LST
Temp Definition
°C
Dew Point Definition
°C
Rel Hum Definition
%
Precip. Amount Definition
mm

Wind Dir Definition
10's deg

Wind Spd Definition
km/h
Visibility Definition
km
Stn Press Definition
kPa
Hmdx Definition


Wind Chill Definition


Weather Definition


00:00 3.3 2.9 97 0.0 25 3   100.52     LegendNANA
01:00 3.7 3.1 96 0.0 28 3   100.65     LegendNANA
02:00 4.7 3.7 93 0.0 32 2   100.72     LegendNANA
03:00 3.1 2.2 94 0.0   0   100.82     LegendNANA
04:00 2.6 2.1 97 0.0 24 1   100.89     LegendNANA
05:00 3.3 3.0 98 0.0 34 2   100.98     LegendNANA
06:00 4.9 4.5 98 0.0 36 3   101.05     LegendNANA
07:00 5.2 4.6 96 0.0 0 1   101.12     LegendNANA
08:00 5.5 4.8 95 0.0 34 3   101.19     LegendNANA
09:00 6.3 5.0 91 0.0 35 3   101.27     LegendNANA
10:00 7.0 5.2 89 0.0 2 4   101.32     LegendNANA
11:00 8.3 5.8 84 0.0 16 2   101.36     LegendNANA
12:00 8.3 5.9 85 0.0 10 2   101.34     LegendNANA
13:00 8.0 6.2 88 0.0 10 4   101.34     LegendNANA
14:00 7.6 5.8 89 0.0 10 1   101.37     LegendNANA
15:00 7.5 5.4 86 0.0 13 2   101.39     LegendNANA
16:00 7.4 5.5 88 0.0 13 1   101.42     LegendNANA
17:00 7.2 5.4 88 0.0 12 2   101.44     LegendNANA
18:00 7.3 5.5 88 0.0 12 3   101.45     LegendNANA
19:00 7.2 5.4 88 0.0 12 2   101.44     LegendNANA
20:00 7.0 5.5 90 0.0 17 2   101.45     LegendNANA
21:00 6.7 5.7 93 0.0 10 3   101.46     LegendNANA
22:00 6.4 5.4 93 0.0 9 2   101.47     LegendNANA
23:00 6.7 5.9 95 0.0 9 3   101.45     LegendNANA

Notes on Data Quality.

Legend

  • E = Estimated
  • M = Missing
  • NA = Not Available*
  • [empty] = Indicates an unobserved value
Date modified: